This is the latest recevied weather packets stored in our database for station/object NC4M. If no packets are shown the sender has not sent any weather packets the latest 10 day(s).
| Time | Temp. | Humidity | Pressure | Rain* | Wind** | Luminosity | Snow |
|---|---|---|---|---|---|---|---|
| 1787538223 | 21.11° C | 76% | 1018.5 hPa | 0 mm | - | 0 W/m² | - |
| 1787537919 | 21.11° C | 74% | 1018.6 hPa | 0 mm | - | 0 W/m² | - |
| 1787537616 | 21.11° C | 73% | 1018.5 hPa | 0 mm | - | 0 W/m² | - |
| 1787537310 | 21.11° C | 74% | 1018.5 hPa | 0 mm | - | 0 W/m² | - |
| 1787537006 | 21.11° C | 76% | 1018.4 hPa | 0 mm | - | 0 W/m² | - |
| 1787536704 | 21.11° C | 76% | 1018.2 hPa | 0 mm | - | 0 W/m² | - |
| 1787536402 | 21.11° C | 78% | 1018.2 hPa | 0 mm | - | 0 W/m² | - |
| 1787536101 | 20.56° C | 79% | 1018.1 hPa | 0 mm | - | 0 W/m² | - |
| 1787535798 | 20.56° C | 81% | 1017.9 hPa | 0 mm | - | 0 W/m² | - |
| 1787535497 | 20.56° C | 81% | 1017.9 hPa | 0 mm | - | 0 W/m² | - |
| 1787535193 | 20.56° C | 82% | 1017.6 hPa | 0 mm | - | 0 W/m² | - |
| 1787534888 | 20.56° C | 81% | 1017.6 hPa | 0 mm | - | 0 W/m² | - |
| 1787534588 | 20.56° C | 83% | 1017.5 hPa | 0 mm | - | 0 W/m² | - |
| 1787534286 | 21.11° C | 82% | 1017.5 hPa | 0 mm | - | 0 W/m² | - |
| 1787533982 | 21.11° C | 82% | 1017.4 hPa | 0 mm | - | 0 W/m² | - |
| 1787533677 | 21.11° C | 81% | 1017.5 hPa | 0 mm | - | 0 W/m² | - |
| 1787533375 | 21.11° C | 77% | 1017.4 hPa | 0 mm | - | 0 W/m² | - |
| 1787533074 | 21.11° C | 80% | 1017.6 hPa | 0 mm | - | 0 W/m² | - |
| 1787532769 | 21.67° C | 80% | 1017.8 hPa | 0 mm | - | 1 W/m² | - |
| 1787532469 | 21.67° C | 76% | 1017.6 hPa | 0 mm | - | 1 W/m² | - |
| 1787532166 | 21.67° C | 77% | 1017.7 hPa | 0 mm | - | 2 W/m² | - |
| 1787531861 | 21.67° C | 78% | 1018 hPa | 0 mm | - | 3 W/m² | - |
| 1787531558 | 21.67° C | 76% | 1018.2 hPa | 0 mm | - | 4 W/m² | - |
| 1787531253 | 21.67° C | 74% | 1018.2 hPa | 0 mm | - | 4 W/m² | - |
| 1787530949 | 22.22° C | 77% | 1018.2 hPa | 0 mm | - | 5 W/m² | - |
* Rain latest hour (hover to see other rain measurements)
** Current wind speed in m/s (hover to see current wind gust speed)